Regional Weather Roundup
Issued by NWS Charleston, SC

Home | Current Version | Previous Version | Text Only | Print | Product List | Glossary On
Versions: 1 2 3 4 5 6 7 8 9 10 11 12 13 14 15 16 17 18 19 20 21 22 23 24 25 26 27 28 29 30 31 32 33 34 35 36 37 38 39 40 41 42 43 44 45 46 47 48 49 50
000
ASUS42 KCHS 251827
RWRCHS

REGIONAL WEATHER ROUNDUP
NATIONAL WEATHER SERVICE CHARLESTON SC
200 PM EDT SAT MAR 25 2017

NOTE: "FAIR" INDICATES FEW OR NO CLOUDS BELOW 12,000 FEET WITH NO
SIGNIFICANT WEATHER AND/OR OBSTRUCTIONS TO VISIBILITY.

NOT ALL STATIONS ARE QUALITY CONTROLLED. USE DATA WITH CAUTION...
ESPECIALLY DEWPOINT OBSERVATIONS.

SCZ027-030-031-034>040-042>050-251900-
...SOUTHEAST SOUTH CAROLINA...

CITY           SKY/WX    TMP DP  RH WIND       PRES   REMARKS
N CHARLESTON   CLOUDY    75  51  43 SE14G23   30.31F
6HR MIN TEMP:  58; 6HR MAX TEMP:  76;

WATERFRONT PRK   N/A     65  56  72 SE7       30.32F
JOHNS ISLAND   CLOUDY    73  55  53 SE9       30.30F
PINOPOLIS        N/A     73  52  46 S5        30.23F
MONCKS CORNER  MOCLDY    73  48  40 S9        30.29F
SUMMERVILLE    CLOUDY    73  50  43 S8        30.29F
BEAUFORT MCAS  FAIR      76  58  53 SE10G17   30.29F
6HR MIN TEMP:  58; 6HR MAX TEMP:  78;

BEAUFORT ARPT  CLOUDY    72  54  53 SE10      30.28F
HILTON HEAD IS MOSUNNY   68  55  64 SE8       30.30F
WALTERBORO     MOCLDY    77  52  41 SE13      30.28F
ALLENDALE      FAIR      75  50  41 SE8G15    30.25F

...SOUTHERN MIDLANDS AND PEE DEE...

CITY           SKY/WX    TMP DP  RH WIND       PRES   REMARKS
GEORGETOWN     CLOUDY    73  50  43 S8        30.32F
KINGSTREE      MOCLDY    73  45  35 S8        30.29F
ORANGEBURG     PTSUNNY   74  52  46 S14G20    30.29F
6HR MIN TEMP:  53; 6HR MAX TEMP:  75;

BARNWELL       MOCLDY    75  54  46 SE7G14    30.26F
AIKEN          MOCLDY    72  50  46 S12       30.29F
MANNING        MOCLDY    73  50  43 SW9       30.28F
COLUMBIA       CLOUDY    74  51  44 SW9       30.30S
6HR MIN TEMP:  53; 6HR MAX TEMP:  75;

SUMTER         FAIR      76  50  40 S12       30.26F
6HR MIN TEMP:  52; 6HR MAX TEMP:  76;

FLORENCE       PTSUNNY   74  50  42 S7        30.29F
6HR MIN TEMP:  52; 6HR MAX TEMP:  74;

MYRTLE BEACH   PTSUNNY   72  54  53 S13       30.33F
N MYRTLE BEACH CLOUDY    70  51  51 S9        30.33F
6HR MIN TEMP:  59; 6HR MAX TEMP:  71;


$$

GAZ063-065-086>088-099>101-113>116-118-119-134>141-150-251900-
...SOUTHEAST GEORGIA...

CITY           SKY/WX    TMP DP  RH WIND       PRES   REMARKS
SAVANNAH ARPT  PTSUNNY   76  51  41 S15       30.28F
6HR MIN TEMP:  58; 6HR MAX TEMP:  78;

HUNTER AAF     FAIR      75  55  50 S13       30.25F
6HR MIN TEMP:  64; 6HR MAX TEMP:  76;

FORT STEWART   PTSUNNY   76  54  46 SE10      30.25F
6HR MIN TEMP:  54; 6HR MAX TEMP:  76;

STATESBORO     CLOUDY    76  55  47 S8        30.26F
SYLVANIA       MOCLDY   N/A N/A N/A S5        30.27F
CLAXTON        MOCLDY    75  56  51 E3G18     30.25F

...CSRA...CENTRAL AND FAR SOUTHEAST GEORGIA...

CITY           SKY/WX    TMP DP  RH WIND       PRES   REMARKS
THOMSON        CLOUDY    72  51  47 W6        30.30F
AUGUSTA-BUSH   CLOUDY    76  53  44 S12       30.25F
6HR MIN TEMP:  52; 6HR MAX TEMP:  77;

AUGUSTA-DANIEL CLOUDY    74  50  42 S9        30.27F
SWAINSBORO     CLOUDY    75  52  43 SE8       30.25F
VIDALIA        PTSUNNY   77  54  44 S8        30.24F
EASTMAN        MOCLDY    78  36  21 S8G17     30.25F
HAZLEHURST     FAIR      78  56  47 SE9       30.23F
ALMA           PTSUNNY   75  56  51 SE12      30.24F
6HR MIN TEMP:  53; 6HR MAX TEMP:  77;

WAYCROSS       PTSUNNY   78  60  52 SE6       30.23F
JESUP          CLOUDY    75  52  43 SE10      30.25F
BAXLEY         PTSUNNY   77  59  53 S7        30.23F
BRUNSWICK      PTSUNNY   77  57  50 SE13      30.27F
SAINT SIMONS   FAIR      72  54  53 E12       30.27F
6HR MIN TEMP:  64; 6HR MAX TEMP:  75;


$$

SCZ027-028-034-036>038-045-046-048>050-GAZ119-141-251900-
...LAKE AND SUPPLEMENTAL COASTAL OBSERVATIONS...

STATION/POSITION TIME  TEMP    WIND        PRES    WAVE   SWELL
                       AIR SEA DIR/SP/G            HT/PER HT/PER/DIR
                 (UTC) (F)     (DEG/KT/KT) (MB)    (FT/S) (FT/S/D)
WINYAH BAY       1745   69     130/  9     1027.0S
LAKE MURRAY      1750   70     200/  3/  5 1024.7F
ACE BASIN NERRS  1745   73     130/  6     1026.0F
FORT PULASKI     1800   71 62  140/  7/ 13 1025.9
SAPELO ISLAND    1800   76     120/  8     1025.0

$$

ANZ835-935-AMZ111-154-330-350-352-354-370-450-454-472-251900-
...C-MAN AND BUOY OBSERVATIONS...

STATION/POSITION TIME  TEMP    WIND        PRES    WAVE   SWELL
                       AIR SEA DIR/SP/G            HT/PER HT/PER/DIR
                 (UTC) (F)     (DEG/KT/KT) (MB)    (FT/S) (FT/S/D)
BUOY 41004       1750   70 70  140/ 14/ 16 1026.5F   4/ 7   3/140/ 7
BUOY 41008       1750   65 63  100/  8/  8 1025.7F   4/ 8   5/120/ 8
FOLLY BEACH CMAN 1800   64      90/  7/  7 1027.1F
CAPERS NEARSHORE 1808   63      90/  4/  6 1026.5F
FRIPP NEARSHORE  1808   64 61  120/  8/ 10 1025.6F


STATION/POSITION TIME  TEMP    WIND        PRES    WAVE   SWELL
                       AIR SEA DIR/SP/G            HT/PER HT/PER/DIR
                 (UTC) (F)     (DEG/KT/KT) (MB)    (FT/S) (FT/S/D)
5E ST. MARYS GA  1800      66                N/A     4/ 8
FRYING PAN BUOY  1810   69 73  170/ 12/ 14 1027.0
BUOY 41025       1750   70 77  230/ 17/ 19 1026.6F   3/10   2/120/10
CAPE LOOKOUT NC  1800   71     210/ 11/ 16 1026.5F
BUOY 41002       1750   66 73   80/ 12/ 16 1028.4F   4/ 8   3/110/ 8
BUOY 41010       NOT AVBL
ST AUGUSTINE FL  1800   68 68  120/  8/  9 1025.6F


$$




USA.gov is the U.S. government's official web portal to all federal, state and local government web resources and services.